Waco, TX

8:12 PM CDT on October 20, 2017 (GMT -0500)
Waco Regional

Weather History for KACT - March, 2014

Change the Weather History Date:

Wednesday, March 26, 2014

  Actual Average Record
Temperature  
Mean Temperature 52 °F 61 °F  
Max Temperature 65 °F 72 °F 94 °F (2011)
Min Temperature 38 °F 49 °F 22 °F (2013)
Degree Days  
Heating Degree Days 13 6  
Month to date heating degree days 339 220  
Since 1 July heating degree days 2482 2032  
Cooling Degree Days 0 2  
Month to date cooling degree days 4 27  
Year to date cooling degree days 4 36  
Moisture  
Dew Point 42 °F    
Average Humidity 64    
Maximum Humidity 75    
Minimum Humidity 52    
Precipitation  
Precipitation 0.02 in 0.09 in 1.78 in (1939)
Month to date precipitation 0.60 2.72  
Year to date precipitation 1.36 7.47  
Snow  
Snow 0.00 in 0.00 in 0.00 in ()
Month to date snowfall 0.1 0.1  
Since 1 July snowfall 0.1 0.9  
Snow Depth 0.00 in    
Sea Level Pressure  
Sea Level Pressure 30.07 in    
Wind  
Wind Speed 15 mph (SSE)    
Max Wind Speed 33 mph    
Max Gust Speed 41 mph    
Visibility 10 miles    
Events Rain    
T = Trace of Precipitation, MM = Missing Value Source: NWS Daily Summary

Daily Weather History Graph

Daily Weather History Graph

Search for Another Location

Airport or City:

Trip Planner

Search our weather history database for the weather conditions in past years. The results will help you decide how hot, cold, wet, or windy it might be!

Date:

Astronomy

Mar. 26, 2014 Rise Set
Actual Time 7:25 AM CDT 7:44 PM CDT
Civil Twilight 7:00 AM CDT 8:08 PM CDT
Nautical Twilight 6:32 AM CDT 8:37 PM CDT
Astronomical Twilight 6:03 AM CDT 9:06 PM CDT
Moon 4:18 AM CDT (3/26) 3:38 PM CDT (3/26)
Length of Visible Light 13h 08m
Length of Day
12h 19m
Waning Crescent, 21% of the Moon is Illuminated
Mar 26
Waning Crescent
Mar 30
New
Apr 7
First Quarter
Apr 15
Full
Apr 22
Last Quarter

Hourly Weather History & Observations

Time (CDT) Temp. Windchill Dew Point Humidity Pressure Visibility Wind Dir Wind Speed Gust Speed Precip Events Conditions
12:51 AM 46.0 °F 43.9 °F 30.9 °F 56% 30.20 in 10.0 mi ESE 4.6 mph - N/A   Clear
1:51 AM 41.0 °F 38.0 °F 30.9 °F 67% 30.20 in 10.0 mi SE 4.6 mph - N/A   Clear
2:51 AM 42.1 °F - 30.9 °F 65% 30.19 in 10.0 mi Calm Calm - N/A   Clear
3:51 AM 45.0 °F - 30.0 °F 56% 30.17 in 10.0 mi Calm Calm - N/A   Clear
4:51 AM 46.0 °F 43.1 °F 34.0 °F 63% 30.15 in 10.0 mi ESE 5.8 mph - N/A   Overcast
5:51 AM 48.0 °F - 33.1 °F 56% 30.14 in 10.0 mi ESE 8.1 mph - N/A   Overcast
6:51 AM 46.9 °F - 34.0 °F 61% 30.13 in 10.0 mi SE 5.8 mph - N/A   Scattered Clouds
7:51 AM 50.0 °F - 36.0 °F 59% 30.13 in 10.0 mi SE 8.1 mph - 0.00 in Rain Light Rain
8:51 AM 50.0 °F - 39.0 °F 66% 30.15 in 10.0 mi SE 6.9 mph - 0.01 in   Overcast
9:51 AM 53.1 °F - 37.0 °F 55% 30.17 in 10.0 mi SSE 13.8 mph - N/A   Overcast
10:51 AM 53.1 °F - 44.1 °F 71% 30.17 in 10.0 mi SE 8.1 mph - 0.01 in   Overcast
11:51 AM 55.9 °F - 44.1 °F 64% 30.12 in 10.0 mi SSE 20.7 mph 26.5 mph N/A   Overcast
12:51 PM 61.0 °F - 46.0 °F 58% 30.07 in 10.0 mi SSE 18.4 mph 26.5 mph N/A   Overcast
1:51 PM 63.0 °F - 46.0 °F 54% 30.04 in 10.0 mi South 27.6 mph 35.7 mph N/A   Mostly Cloudy
2:51 PM 63.0 °F - 45.0 °F 52% 30.02 in 10.0 mi South 27.6 mph 36.8 mph N/A   Overcast
3:51 PM 62.1 °F - 45.0 °F 53% 30.00 in 10.0 mi South 25.3 mph 35.7 mph N/A   Overcast
4:51 PM 61.0 °F - 46.9 °F 60% 29.99 in 10.0 mi South 23.0 mph 31.1 mph N/A   Overcast
5:51 PM 62.1 °F - 48.0 °F 60% 29.98 in 10.0 mi South 23.0 mph 31.1 mph N/A   Overcast
6:51 PM 62.1 °F - 50.0 °F 65% 29.96 in 10.0 mi SSE 19.6 mph - N/A   Overcast
7:51 PM 61.0 °F - 51.1 °F 70% 29.95 in 10.0 mi SSE 18.4 mph 24.2 mph N/A   Overcast
8:51 PM 60.1 °F - 48.9 °F 67% 29.94 in 10.0 mi South 20.7 mph 31.1 mph N/A   Mostly Cloudy
9:51 PM 59.0 °F - 51.1 °F 75% 29.95 in 10.0 mi SSE 20.7 mph 26.5 mph N/A   Mostly Cloudy
10:51 PM 59.0 °F - 51.1 °F 75% 29.94 in 10.0 mi SSE 21.9 mph 31.1 mph N/A   Overcast
11:49 PM 59.0 °F - 51.8 °F 77% 29.94 in 10.0 mi SSE 17.3 mph 27.6 mph N/A   Overcast
11:51 PM 59.0 °F - 52.0 °F 78% 29.93 in 10.0 mi SSE 20.7 mph 27.6 mph N/A   Overcast